This is the latest recevied weather packets stored in our database for station/object KD0TGF-W. If no packets are shown the sender has not sent any weather packets the latest 1 day(s).
| Time | Temp. | Humidity | Pressure | Rain* | Wind** | Luminosity | Snow |
|---|---|---|---|---|---|---|---|
| 1777996554 | 7.78° C | 51% | 1010.4 hPa | 0 mm | 4.02 m/s, 337° | - | - |
| 1777996494 | 7.78° C | 52% | 1010.3 hPa | 0 mm | 4.02 m/s, 334° | - | - |
| 1777996434 | 7.78° C | 52% | 1010.4 hPa | 0 mm | 3.58 m/s, 327° | - | - |
| 1777996374 | 7.78° C | 51% | 1010.4 hPa | 0 mm | 3.58 m/s, 322° | - | - |
| 1777996314 | 7.78° C | 49% | 1010.4 hPa | 0 mm | 4.02 m/s, 315° | - | - |
| 1777996254 | 7.78° C | 50% | 1010.4 hPa | 0 mm | 4.02 m/s, 310° | - | - |
| 1777996194 | 8.33° C | 49% | 1010.3 hPa | 0 mm | 3.58 m/s, 306° | - | - |
| 1777996134 | 8.33° C | 50% | 1010.4 hPa | 0 mm | 3.58 m/s, 304° | - | - |
| 1777996074 | 8.33° C | 51% | 1010.4 hPa | 0 mm | 3.58 m/s, 306° | - | - |
| 1777996013 | 8.33° C | 51% | 1010.4 hPa | 0 mm | 4.02 m/s, 306° | - | - |
| 1777995954 | 8.33° C | 52% | 1010.4 hPa | 0 mm | 4.02 m/s, 307° | - | - |
| 1777995894 | 8.33° C | 50% | 1010.4 hPa | 0 mm | 4.02 m/s, 308° | - | - |
| 1777995834 | 8.33° C | 50% | 1010.4 hPa | 0 mm | 3.58 m/s, 308° | - | - |
| 1777995774 | 8.33° C | 50% | 1010.5 hPa | 0 mm | 3.58 m/s, 312° | - | - |
| 1777995714 | 8.33° C | 50% | 1010.5 hPa | 0 mm | 3.58 m/s, 315° | - | - |
| 1777995655 | 8.33° C | 50% | 1010.4 hPa | 0 mm | 3.58 m/s, 318° | - | - |
| 1777995594 | 8.33° C | 50% | 1010.3 hPa | 0 mm | 3.58 m/s, 320° | - | - |
| 1777995534 | 8.33° C | 50% | 1010.3 hPa | 0 mm | 3.13 m/s, 321° | - | - |
| 1777995474 | 8.33° C | 51% | 1010.3 hPa | 0 mm | 3.13 m/s, 311° | - | - |
| 1777995414 | 8.33° C | 51% | 1010.2 hPa | 0 mm | 3.13 m/s, 306° | - | - |
| 1777995354 | 8.33° C | 52% | 1010.2 hPa | 0 mm | 2.24 m/s, 304° | - | - |
| 1777995294 | 8.33° C | 52% | 1010.3 hPa | 0 mm | 2.24 m/s, 306° | - | - |
| 1777995234 | 8.33° C | 49% | 1010.3 hPa | 0 mm | 2.24 m/s, 314° | - | - |
| 1777995175 | 8.33° C | 51% | 1010.3 hPa | 0 mm | 2.24 m/s, 317° | - | - |
| 1777995114 | 8.33° C | 51% | 1010.2 hPa | 0 mm | 2.24 m/s, 320° | - | - |
* Rain latest hour (hover to see other rain measurements)
** Current wind speed in m/s (hover to see current wind gust speed)